Regional Weather Roundup
Issued by NWS Northern Indiana

Home | Current Version | Previous Version | Graphics & Text | Print | Product List | Glossary On
Versions: 1 2 3 4 5 6 7 8 9 10 11 12 13 14 15 16 17 18 19 20 21 22 23 24 25 26 27 28 29 30 31 32 33 34 35 36 37 38 39 40 41 42 43 44 45 46 47 48 49 50
019
ASUS43 KIWX 250910
RWRIWX

KIWX WEATHER ROUNDUP
NATIONAL WEATHER SERVICE NORTHERN INDIANA
500 AM EDT THU MAY 25 2017

NOTE: "FAIR" INDICATES FEW OR NO CLOUDS BELOW 12,000 FEET WITH NO
SIGNIFICANT WEATHER AND/OR OBSTRUCTIONS TO VISIBILITY.

* THESE STATIONS ARE NOT UNDER NWS QUALITY CONTROL. THEY ALSO MAY NOT
  REPORT WEATHER SUCH AS PRECIPITATION OR FOG.

INZ001>027-251000-
NORTHERN INDIANA

CITY           SKY/WX    TMP DP  RH WIND       PRES   REMARKS
GARY*          CLOUDY    53  50  88 NW14G22   29.52S
VALPARAISO     CLOUDY    51  50  96 NW8       29.48F
LAPORTE*       RAIN      55  54  97 N10G17    29.47S
KNOX*          CLOUDY    54  54 100 N9        29.46R
SOUTH BEND     CLOUDY    57  56  96 N12       29.46R
GOSHEN         CLOUDY    58  55  90 N12       29.42S
LOGANSPORT*    DRIZZLE   54  54 100 NW14      29.42S
ROCHESTER*     LGT RAIN N/A N/A N/A N10       29.42S
WARSAW*        RAIN      57  57 100 N9        29.42S
FORT WAYNE     LGT RAIN  60  58  92 N10       29.38R FOG
HUNTINGTON*    CLOUDY   N/A N/A N/A N8        29.38S
PERU/GRISSOM   CLOUDY    58  58 100 N13       29.39R
MARION*        LGT RAIN  57  57 100 N12       29.38S

$$
INZ028>050-251000-
CENTRAL INDIANA

CITY           SKY/WX    TMP DP  RH WIND       PRES   REMARKS
LAFAYETTE      LGT RAIN  54  53  97 NW14      29.44S FOG
KOKOMO*        LGT RAIN  59  57  94 N14       29.40R
MUNCIE*        CLOUDY    59  56  89 N10       29.36R
INDIANAPOLIS   LGT RAIN  56  54  93 NW15      29.40S FOG

$$
MIZ043>046-050>051-056>058-064>065-071>073-077>080-251000-
SOUTHWEST LOWER MICHIGAN

CITY           SKY/WX    TMP DP  RH WIND       PRES   REMARKS
BATTLE CREEK   LGT RAIN  57  56  96 NE9       29.48R FOG
BENTON HARBOR  CLOUDY    57  54  89 NE8       29.47F
COLDWATER*     LGT RAIN  58  58 100 NE10      29.44S
HILLSDALE*     LGT RAIN  57  55  94 NE7       29.43S
HOLLAND        CLOUDY    58  53  84 NE5       29.50F
GRAND RAPIDS   CLOUDY    56  56 100 NE13      29.50F
KALAMAZOO      CLOUDY    57  54  89 N8        29.48R FOG
STURGIS*       CLOUDY    57  57  99 NE10G16   29.43S FOG
THREE RIVERS*  CLOUDY    57  56  99 N10G16    29.45S FOG

$$
OHZ001>008-015>018-024>025-251000-
NORTHWEST OHIO

CITY           SKY/WX    TMP DP  RH WIND       PRES   REMARKS
WAUSEON*       CLOUDY    59  59 100 NE13      29.41R
DEFIANCE       CLOUDY    59  57  93 NE9       29.40R
FINDLAY        MOCLDY    61  56  83 NE7       29.37S
TOLEDO EXPRESS CLOUDY    58  58 100 NE13      29.41S
TOLEDO METCALF CLOUDY    60  59  96 NE8       29.42S
LIMA           HVY RAIN  60  59  96 E10       29.35S FOG

$$
AND FOR LAKE MICHIGAN COASTAL AND OPEN LAKE BUOY OBSERVATIONS

STATION/POSITION TEMP    WIND        PRES    VSBY  WAVE
                 AIR SEA DIR/SP/G                  HT/PER
                 (F)     (DEG/KT/KT) (MB)    (MI)  (FT/S)
CALUMET HARBOR    51     320/ 15/ 20  999.6R
MICHIGAN CITY     50     330/ 21/ 22   N/A
BURNS HARBOR      50     340/ 18/ 22  999.3S
SOUTH LAKE BUOY   46 45  360/ 12/ 14 1000.1S         3/ 6
4 MI NW BRIDGMAN  55 56   40/ 12/ 16  998.4          4/ 6
MICHIGAN CITY     49 52  350/ 17/ 21   N/A           6/ 6

$$
&&




USA.gov is the U.S. government's official web portal to all federal, state and local government web resources and services.